Temperature
10 11 11 11 11 9 9 9 9 9 9 10 10 9 10 10 10 10 9 9 8 8 7 7 6 6 5 5 5 5 4 4 4 4 4 3 3 3 2 2 1 1 0 0
11 10 9 9 9 9 9 8 8 8 9 9 9 9 9 9 9 9 9 8 8 7 7 6 5 5 5 4 4 4 4 4 3 3 3 2 2 2 1 1 0 -0 -0 -1
9 9 9 9 9 9 8 8 8 8 8 8 8 8 9 9 9 8 8 7 7 6 6 5 5 4 4 4 3 3 3 3 3 2 2 1 1 1 0 -0 -0 -1 -1 -1
7 9 9 10 10 9 9 9 7 8 8 8 8 9 9 9 8 8 7 6 6 5 5 4 4 4 3 3 3 3 2 2 2 1 1 0 -0 -0 -1 -1 -1 -2 -2 -2
6 7 7 9 9 9 8 8 8 7 7 8 8 7 8 8 7 7 6 5 5 4 4 4 3 3 3 3 2 2 2 1 1 0 -0 -1 -1 -1 -2 -2 -2 -2 -3 -3
5 7 8 10 10 10 9 8 8 7 7 7 6 5 5 7 6 6 5 5 4 4 4 3 3 2 2 2 2 1 1 0 -0 -1 -1 -2 -2 -2 -2 -3 -3 -3 -3 -3
5 6 7 8 9 9 9 9 8 8 8 7 6 5 6 6 5 5 4 4 4 3 3 3 2 2 1 1 1 0 -0 -0 -1 -1 -2 -2 -3 -3 -3 -3 -4 -4 -4 -4
4 5 7 8 7 7 8 8 8 8 7 7 6 6 5 5 4 4 4 3 3 3 3 2 2 1 1 1 0 -0 -1 -1 -1 -2 -2 -3 -3 -3 -4 -4 -4 -5 -5 -5
6 7 7 8 8 8 8 8 7 7 6 6 5 5 4 4 4 3 3 3 2 2 2 2 1 0 -0 -0 -1 -1 -1 -2 -2 -2 -3 -3 -4 -4 -4 -5 -5 -5 -6 -6
5 5 6 7 7 7 7 7 6 6 5 5 4 4 4 3 3 3 2 2 2 1 1 1 1 0 -0 -1 -1 -2 -2 -2 -3 -3 -4 -4 -4 -5 -5 -5 -6 -6 -6 -6
5 5 6 6 7 7 6 6 5 5 4 4 4 3 3 2 2 2 2 2 1 1 0 0 0 -0 -1 -1 -2 -3 -3 -3 -4 -4 -4 -5 -5 -5 -5 -6 -6 -6 -6 -6
6 6 5 6 6 6 5 5 4 4 4 3 3 3 2 2 2 2 1 1 1 0 0 -0 -0 -1 -1 -2 -3 -3 -4 -4 -4 -5 -5 -5 -5 -5 -5 -6 -6 -6 -6 -6
7 7 6 6 5 5 4 4 4 3 3 3 3 2 2 2 2 1 1 1 0 0 -0 -1 -1 -1 -2 -2 -3 -4 -4 -5 -5 -5 -6 -6 -6 -6 -6 -6 -6 -6 -6 -6
6 6 5 5 4 4 4 3 3 3 3 2 2 2 1 1 1 1 1 0 -0 -0 -1 -1 -1 -2 -2 -3 -4 -4 -5 -5 -5 -6 -6 -6 -6 -6 -7 -7 -6 -6 -6 -6
5 5 5 4 4 3 3 3 3 3 2 2 2 2 1 1 1 1 0 -0 -0 -1 -1 -1 -2 -2 -3 -3 -4 -4 -5 -5 -6 -6 -6 -6 -6 -7 -7 -7 -7 -7 -6 -6
4 4 4 3 3 3 3 3 2 2 2 2 2 1 1 1 0 0 0 -0 -1 -1 -1 -2 -2 -2 -3 -4 -4 -5 -5 -5 -6 -6 -6 -7 -7 -7 -7 -7 -7 -7 -7 -7
3 3 3 3 3 2 2 2 2 2 2 1 1 1 1 0 0 0 -0 -1 -1 -1 -2 -2 -2 -3 -3 -4 -5 -5 -6 -6 -6 -7 -7 -7 -7 -7 -7 -7 -7 -7 -7 -7
3 3 3 3 2 2 2 2 2 1 1 1 1 0 0 -0 -1 -1 -1 -1 -1 -2 -2 -2 -3 -3 -4 -5 -5 -6 -6 -6 -6 -7 -7 -7 -7 -7 -7 -8 -8 -7 -7 -7
2 2 2 2 2 2 2 1 1 1 1 0 0 -0 -0 -1 -1 -1 -2 -2 -2 -2 -2 -3 -4 -4 -4 -5 -6 -6 -6 -7 -7 -7 -7 -7 -7 -7 -8 -8 -8 -8 -8 -8
2 2 2 2 2 1 1 1 1 0 0 -0 -1 -1 -1 -1 -1 -2 -2 -2 -2 -3 -3 -3 -4 -4 -5 -5 -6 -6 -7 -7 -7 -7 -8 -8 -8 -8 -8 -8 -8 -8 -8 -8
2 2 1 1 1 1 1 0 0 -0 -0 -1 -1 -1 -2 -2 -2 -2 -3 -3 -3 -3 -4 -4 -5 -5 -6 -6 -6 -7 -7 -7 -7 -8 -8 -8 -8 -8 -8 -8 -8 -8 -8 -8
1 1 1 1 0 0 0 -0 -0 -1 -1 -1 -2 -2 -2 -2 -3 -3 -3 -3 -3 -4 -4 -5 -5 -6 -6 -7 -7 -7 -7 -7 -8 -8 -8 -9 -9 -9 -9 -9 -9 -8 -8 -8
0 0 0 -0 -1 -1 -1 -1 -1 -1 -2 -2 -2 -2 -3 -3 -3 -4 -4 -4 -4 -5 -5 -5 -6 -6 -7 -7 -7 -7 -8 -8 -8 -8 -9 -9 -9 -9 -9 -9 -9 -9 -9 -9
-0 -0 -1 -1 -1 -1 -1 -1 -2 -2 -2 -2 -2 -3 -3 -4 -4 -4 -4 -5 -5 -5 -6 -6 -6 -7 -7 -7 -7 -8 -8 -8 -9 -9 -9 -9 -9 -9 -9 -9 -9 -9 -9 -9
-1 -1 -1 -2 -2 -2 -2 -2 -3 -3 -3 -3 -3 -3 -4 -4 -5 -5 -5 -5 -6 -6 -6 -6 -7 -7 -8 -8 -8 -8 -9 -9 -9 -9 -9 -9 -10 -10 -10 -10 -10 -9 -9 -9
-2 -2 -2 -2 -3 -3 -3 -3 -4 -4 -4 -4 -4 -4 -4 -5 -5 -6 -6 -6 -6 -7 -7 -7 -7 -8 -8 -8 -9 -9 -9 -9 -9 -9 -10 -10 -10 -10 -10 -10 -10 -10 -9 -9
-2 -2 -3 -3 -3 -3 -4 -4 -4 -4 -5 -5 -5 -5 -5 -6 -6 -6 -7 -7 -7 -7 -8 -8 -8 -8 -9 -9 -9 -10 -10 -10 -10 -10 -10 -10 -10 -10 -10 -10 -10 -10 -10 -9
Wind_Speed
6 4 4 7 9 9 11 10 11 10 10 11 6 5 4 3 2 1 1 2 3 4 5 5 6 7 7 8 8 8 9 10 11 11 11 11 12 12 12 12 13 13 13 13
3 1 3 7 11 12 11 9 10 9 10 5 1 2 2 3 2 2 2 4 5 5 6 6 6 7 8 8 9 9 10 12 12 12 12 12 12 13 13 13 13 12 13 14
4 3 5 9 10 9 7 7 9 9 7 2 1 2 3 4 3 3 4 5 5 6 6 6 7 7 8 8 9 10 11 12 12 12 13 13 14 14 14 13 12 13 13 13
2 1 8 8 2 6 5 4 6 5 3 3 3 3 4 2 2 3 4 5 5 6 6 6 6 7 8 8 9 10 11 12 12 13 14 14 14 14 14 13 13 13 14 14
4 4 9 9 5 6 6 4 4 6 4 2 1 4 4 0 0 3 4 4 5 5 6 6 8 8 8 10 10 11 12 13 13 13 15 15 15 15 14 14 14 13 13 14
5 5 8 7 2 2 4 4 4 6 5 3 3 1 4 3 3 4 5 4 5 5 6 7 8 8 9 11 11 12 13 13 13 13 14 16 16 16 14 13 14 14 14 14
6 7 9 7 3 5 4 6 5 6 5 4 5 5 4 4 4 4 5 5 5 6 7 8 8 8 10 11 12 13 13 14 14 13 14 15 15 14 14 14 14 15 15 14
7 6 10 3 6 8 6 3 5 4 3 3 4 4 4 4 5 6 6 6 6 7 9 9 8 8 11 13 13 13 13 14 14 13 13 14 14 15 14 14 14 14 14 14
10 8 2 1 5 3 4 4 3 2 1 1 2 3 4 5 6 6 6 7 7 7 10 10 8 8 12 14 13 13 13 14 14 14 13 13 13 15 14 12 12 13 12 13
5 6 3 2 3 3 3 2 2 1 0 1 2 4 5 5 6 6 7 7 7 8 10 11 10 10 11 13 12 13 14 15 14 14 14 13 11 11 12 12 12 13 13 13
5 3 2 2 3 3 2 2 2 1 0 1 2 4 5 5 7 7 7 7 7 8 11 13 12 11 11 11 12 13 14 14 14 12 13 13 12 11 13 11 14 16 13 12
7 7 7 5 4 4 3 1 1 0 1 1 2 5 6 6 7 7 8 8 9 10 11 12 12 13 12 11 10 12 14 13 12 12 12 12 13 14 17 19 24 24 23 21
4 3 4 4 4 4 3 2 1 1 2 3 4 5 5 6 6 7 8 9 10 11 12 12 12 13 12 11 10 11 13 14 12 12 12 13 13 14 15 17 20 21 22 23
4 5 4 4 4 3 3 2 1 1 2 4 4 5 6 7 7 9 10 11 11 12 12 12 13 14 13 11 11 12 13 15 14 11 12 12 13 13 13 15 15 13 15 21
3 4 5 5 4 3 2 1 1 3 4 5 5 6 7 9 10 11 11 11 11 11 12 12 13 14 12 11 11 13 12 11 11 11 11 12 12 12 12 13 13 13 12 13
5 5 5 5 4 2 1 0 2 5 5 6 7 9 9 10 11 12 12 10 10 13 13 13 14 14 12 11 12 11 10 18 17 13 11 12 12 12 12 12 12 12 12 11
6 5 4 3 2 1 3 4 5 7 7 9 10 10 10 10 11 12 12 10 10 12 13 14 15 13 12 11 11 10 10 13 19 14 11 11 11 12 12 12 12 12 11 13
5 5 4 4 3 4 5 6 7 8 8 10 10 10 10 11 13 14 13 12 11 12 12 13 12 12 11 11 10 9 10 11 10 11 11 11 12 11 11 11 12 13 11 12
4 3 2 2 4 4 6 7 8 8 9 10 10 11 11 11 12 13 12 11 13 15 12 9 17 14 11 13 15 10 10 12 12 11 11 15 14 10 11 11 12 12 11 11
2 0 2 3 4 5 7 8 9 10 10 10 10 11 12 13 12 12 11 12 11 11 11 14 13 11 11 12 17 9 10 11 12 11 11 11 11 12 11 12 12 11 11 11
2 3 5 6 7 8 8 9 9 11 11 10 11 13 14 13 11 10 11 13 11 10 11 17 12 10 10 13 17 9 9 11 11 11 11 11 11 12 12 12 12 11 11 11
3 5 7 7 8 9 9 9 9 11 12 11 12 12 12 13 12 11 10 11 12 15 12 9 8 14 17 19 9 9 10 11 11 10 10 10 11 12 12 12 12 11 11 10
5 6 7 8 9 10 10 10 10 10 11 12 12 12 13 12 10 11 13 8 8 15 13 9 15 23 25 14 8 9 10 11 11 11 11 10 10 11 12 12 11 11 10 10
7 7 8 8 8 9 11 12 11 10 11 12 12 12 12 11 10 8 9 15 18 20 11 15 23 24 22 9 8 9 10 11 11 11 11 10 10 10 11 11 11 11 10 11
8 8 8 9 9 9 10 11 11 11 10 10 11 11 9 8 10 11 9 11 16 18 11 15 21 22 14 9 9 10 10 11 12 12 10 10 10 10 11 11 11 11 10 10
7 7 8 9 9 9 9 8 9 10 10 11 11 9 8 7 9 10 9 10 12 17 13 10 11 14 10 10 10 11 10 12 13 11 10 11 11 11 11 11 12 10 10 10
8 7 7 8 8 7 7 8 10 10 10 11 13 11 10 9 9 10 10 10 10 10 10 9 9 9 10 10 10 10 10 10 10 10 10 10 10 10 10 11 10 10 9 9
Wind_Direction
238 234 205 224 221 201 202 205 216 237 239 261 260 246 240 236 241 238 288 305 302 305 305 312 318 317 314 311 311 312 311 308 303 300 297 295 294 293 291 289 288 286 285 283
273 296 253 261 247 228 226 224 231 255 269 264 238 152 203 227 223 239 281 294 299 304 308 311 311 309 309 308 308 310 307 303 301 300 300 298 296 296 294 292 290 289 286 286
256 314 345 275 247 212 208 205 195 220 231 178 166 211 233 237 237 254 285 291 294 298 296 298 299 300 301 299 304 305 301 300 300 300 300 300 300 300 298 296 292 292 289 287
180 79 245 245 244 177 186 224 202 191 182 176 210 262 275 242 215 277 287 289 293 297 298 298 297 297 296 299 302 301 300 299 298 299 300 302 301 299 298 296 295 294 293 290
154 226 276 289 250 183 180 236 198 177 185 190 8 2 333 346 211 262 278 284 283 286 288 294 297 296 302 303 302 301 300 300 300 301 303 304 303 301 300 299 297 295 294 293
153 193 242 251 182 149 116 245 216 168 176 181 117 6 271 288 320 308 307 301 297 300 302 302 300 303 304 303 303 302 301 301 301 301 301 302 301 301 300 298 297 298 296 294
182 217 258 251 203 127 179 240 174 170 181 180 192 215 252 306 311 307 305 302 303 304 300 296 299 303 300 301 299 299 300 301 301 300 299 298 299 299 300 300 299 300 298 296
165 199 249 219 147 177 198 144 148 163 179 199 230 268 296 306 306 313 312 307 306 305 301 300 299 300 300 300 299 301 302 303 303 302 302 305 301 302 301 301 303 303 302 301
191 208 252 152 165 150 135 138 155 170 190 206 263 283 298 302 305 303 298 298 299 297 299 300 295 291 295 299 303 306 306 305 305 305 303 301 300 303 304 304 304 304 303 303
224 253 227 173 138 116 109 125 123 123 154 208 266 288 296 295 294 296 295 297 297 299 301 302 301 294 288 297 303 304 305 306 306 308 307 304 300 300 302 303 303 302 302 303
231 237 163 215 186 147 101 77 65 36 3 262 273 283 280 283 286 287 290 290 291 291 293 295 298 297 296 298 302 303 304 306 307 305 305 306 303 299 300 293 294 301 301 302
218 204 181 201 183 150 143 157 178 230 308 293 253 263 274 276 277 281 286 288 291 289 289 293 297 298 299 297 297 301 307 308 308 308 306 306 306 305 300 300 303 304 305 305
180 148 146 137 125 125 147 169 179 205 243 270 275 263 267 273 275 280 284 287 288 289 291 293 295 297 298 297 296 296 299 304 305 304 305 305 306 308 310 310 307 307 308 309
134 124 128 138 143 138 141 148 157 272 275 264 266 272 273 274 278 283 284 284 286 289 291 291 293 294 295 296 296 296 297 301 304 301 300 302 303 304 305 307 310 310 310 311
116 122 140 130 122 118 117 115 21 310 294 289 275 276 278 280 283 284 284 285 288 289 290 292 293 294 295 295 296 297 300 301 299 297 298 300 301 302 302 302 303 306 308 311
128 110 117 121 126 128 129 256 281 283 282 282 285 282 277 275 278 282 283 283 287 293 295 295 292 292 296 296 297 300 299 302 307 304 302 302 303 303 304 303 303 305 306 309
142 148 152 155 180 227 246 249 253 264 274 278 279 281 284 286 288 288 286 282 278 281 285 287 288 291 294 292 294 298 298 300 304 304 300 301 302 301 302 303 304 304 303 305
154 155 164 180 208 245 267 269 267 269 270 271 278 283 283 284 286 289 290 293 293 290 283 279 282 291 290 292 294 293 295 296 298 299 301 301 301 301 303 304 302 302 304 307
124 133 164 230 241 247 260 271 274 272 275 278 280 280 279 278 279 282 287 291 293 296 292 282 299 303 294 295 304 294 294 298 300 300 300 303 306 302 301 301 301 303 304 305
82 44 282 279 273 259 266 273 277 280 280 279 281 283 285 283 281 283 285 283 277 275 283 292 296 290 290 293 301 295 295 298 300 301 302 302 303 303 302 302 302 303 303 303
316 296 290 284 283 279 274 276 280 282 285 283 280 281 283 285 284 282 285 291 286 276 285 296 300 294 296 299 304 299 298 299 300 299 300 302 304 304 303 303 303 303 303 302
287 285 286 286 286 288 286 283 281 283 287 287 282 280 283 287 287 283 270 271 283 294 300 289 290 297 306 309 303 298 298 299 299 298 298 299 302 303 304 303 303 303 302 302
284 283 285 285 286 288 292 290 285 283 283 284 285 284 283 284 285 287 292 283 282 296 302 291 299 306 311 313 303 299 298 298 298 298 297 296 298 300 301 302 302 302 302 302
290 290 288 289 293 293 292 291 287 284 279 280 279 276 278 285 286 271 270 290 300 302 299 298 306 310 315 312 301 299 297 297 295 295 295 295 296 299 299 299 300 300 299 300
286 286 287 290 290 286 283 288 292 290 287 286 282 278 273 268 275 287 287 288 295 302 297 301 306 311 312 299 298 298 297 294 295 299 298 299 298 299 298 298 299 300 300 300
282 281 279 274 273 279 283 287 289 291 293 294 294 291 286 281 278 282 287 286 286 296 299 295 296 301 298 295 296 297 296 298 299 299 296 297 298 299 299 299 298 299 299 299
282 280 282 285 281 273 274 280 285 288 288 290 294 296 294 293 292 291 291 293 293 293 293 293 293 294 295 295 297 297 297 296 295 295 296 296 297 296 297 297 297 298 298 297
Height
1517 1516 1517 1518 1517 1520 1523 1522 1523 1516 1514 1506 1506 1505 1505 1505 1505 1505 1506 1505 1505 1504 1502 1499 1496 1493 1490 1486 1482 1478 1473 1467 1462 1456 1451 1444 1438 1432 1426 1421 1415 1409 1404 1398
1516 1516 1518 1518 1513 1513 1514 1514 1514 1511 1509 1503 1503 1503 1503 1504 1504 1504 1504 1503 1502 1500 1498 1495 1492 1489 1485 1481 1477 1472 1466 1461 1455 1449 1442 1436 1430 1423 1417 1411 1406 1400 1394 1389
1522 1519 1516 1516 1503 1504 1505 1504 1506 1507 1504 1502 1502 1502 1502 1502 1502 1502 1502 1501 1499 1497 1494 1491 1488 1484 1480 1475 1471 1465 1460 1454 1448 1441 1434 1428 1421 1415 1409 1402 1396 1390 1385 1380
1524 1520 1522 1503 1495 1495 1498 1498 1499 1499 1499 1500 1501 1501 1501 1500 1500 1500 1499 1498 1496 1493 1490 1487 1483 1479 1475 1470 1465 1459 1453 1447 1440 1433 1426 1419 1413 1407 1400 1394 1388 1382 1376 1371
1526 1523 1515 1500 1493 1494 1497 1497 1495 1497 1498 1499 1500 1500 1499 1499 1499 1498 1496 1494 1492 1489 1486 1482 1479 1474 1469 1464 1458 1452 1446 1440 1433 1426 1419 1412 1405 1399 1393 1386 1380 1374 1368 1363
1524 1521 1515 1496 1490 1489 1493 1497 1494 1494 1496 1498 1499 1502 1500 1497 1496 1494 1493 1491 1488 1485 1482 1478 1473 1468 1463 1457 1452 1446 1439 1433 1426 1420 1413 1405 1398 1391 1385 1379 1372 1366 1360 1355
1519 1518 1505 1490 1488 1490 1498 1494 1492 1493 1494 1496 1496 1497 1496 1494 1493 1491 1489 1487 1484 1480 1477 1472 1468 1462 1457 1451 1445 1439 1432 1426 1419 1413 1406 1398 1391 1384 1378 1371 1365 1359 1353 1347
1514 1516 1503 1486 1487 1490 1489 1489 1490 1491 1492 1493 1493 1493 1492 1491 1489 1487 1485 1482 1479 1475 1471 1467 1462 1457 1450 1445 1439 1432 1425 1418 1412 1405 1399 1391 1384 1377 1371 1365 1358 1351 1345 1339
1494 1490 1485 1483 1484 1485 1486 1488 1489 1490 1490 1491 1490 1490 1489 1487 1485 1483 1480 1477 1474 1470 1465 1461 1457 1451 1445 1438 1432 1425 1418 1411 1404 1397 1391 1385 1378 1371 1364 1359 1352 1346 1340 1333
1488 1484 1482 1483 1483 1484 1485 1486 1487 1488 1488 1488 1487 1486 1485 1483 1481 1479 1476 1473 1469 1464 1459 1455 1451 1445 1439 1432 1425 1418 1411 1404 1397 1390 1383 1377 1371 1365 1359 1353 1347 1341 1335 1329
1483 1481 1481 1481 1482 1483 1484 1484 1485 1485 1485 1485 1484 1483 1482 1479 1477 1474 1471 1468 1464 1459 1454 1448 1443 1438 1433 1426 1419 1411 1404 1397 1390 1384 1377 1370 1364 1360 1354 1348 1344 1337 1331 1326
1477 1474 1477 1478 1480 1481 1482 1482 1483 1483 1482 1482 1481 1480 1478 1476 1473 1470 1466 1462 1458 1453 1448 1442 1437 1431 1425 1419 1412 1405 1398 1391 1384 1378 1371 1365 1358 1351 1347 1343 1337 1332 1327 1321
1471 1472 1474 1476 1477 1479 1479 1480 1480 1480 1480 1479 1478 1476 1474 1471 1468 1465 1461 1457 1452 1446 1441 1435 1430 1424 1418 1412 1406 1399 1392 1385 1379 1372 1366 1359 1353 1346 1338 1333 1329 1325 1320 1314
1469 1471 1473 1474 1475 1476 1477 1478 1478 1477 1477 1476 1474 1472 1469 1466 1463 1459 1455 1450 1445 1440 1434 1429 1422 1417 1411 1405 1399 1392 1386 1380 1374 1367 1361 1355 1349 1342 1336 1328 1321 1315 1312 1308
1468 1469 1471 1472 1473 1474 1475 1475 1475 1474 1473 1471 1469 1467 1464 1460 1456 1452 1448 1444 1438 1433 1427 1421 1415 1409 1404 1398 1392 1386 1379 1373 1367 1361 1355 1349 1343 1337 1331 1324 1318 1312 1306 1301
1467 1468 1469 1470 1471 1472 1472 1472 1472 1470 1469 1467 1464 1461 1458 1454 1450 1445 1441 1437 1431 1425 1420 1414 1408 1402 1397 1391 1385 1378 1373 1367 1362 1355 1349 1344 1338 1332 1325 1320 1314 1308 1302 1297
1465 1466 1468 1469 1470 1470 1470 1469 1468 1466 1464 1461 1458 1455 1451 1447 1442 1438 1433 1429 1424 1418 1413 1407 1401 1395 1390 1384 1378 1372 1366 1360 1355 1350 1344 1338 1332 1326 1320 1315 1309 1303 1298 1293
1463 1465 1466 1467 1467 1467 1466 1465 1464 1461 1459 1455 1452 1448 1444 1439 1435 1430 1425 1420 1415 1410 1406 1400 1394 1388 1382 1378 1372 1365 1360 1354 1348 1343 1337 1332 1326 1321 1315 1309 1304 1298 1293 1288
1462 1464 1464 1465 1464 1464 1462 1460 1458 1456 1452 1449 1445 1440 1436 1432 1427 1422 1417 1412 1407 1401 1396 1392 1387 1381 1376 1370 1365 1359 1354 1348 1342 1337 1331 1326 1320 1315 1309 1304 1299 1294 1289 1284
1461 1462 1462 1461 1461 1459 1457 1455 1452 1449 1445 1442 1437 1432 1428 1424 1420 1415 1409 1404 1400 1395 1389 1384 1378 1373 1368 1363 1358 1352 1347 1342 1336 1330 1325 1320 1314 1309 1304 1299 1294 1288 1284 1279
1459 1459 1458 1457 1455 1454 1451 1448 1445 1441 1438 1434 1430 1424 1420 1415 1411 1407 1401 1395 1391 1388 1382 1377 1372 1366 1361 1356 1351 1346 1341 1335 1329 1324 1319 1314 1308 1303 1298 1293 1288 1284 1279 1274
1456 1455 1453 1451 1449 1447 1444 1441 1438 1434 1429 1425 1421 1417 1412 1407 1403 1398 1393 1389 1384 1380 1374 1369 1364 1359 1354 1350 1344 1339 1333 1328 1323 1318 1313 1308 1303 1298 1293 1288 1283 1278 1274 1269
1451 1449 1447 1445 1442 1439 1436 1434 1430 1426 1421 1417 1413 1409 1405 1400 1395 1391 1385 1381 1377 1372 1367 1362 1357 1352 1348 1342 1337 1332 1326 1321 1316 1311 1307 1302 1297 1292 1287 1282 1278 1273 1269 1264
1446 1444 1441 1439 1436 1432 1428 1425 1422 1418 1414 1410 1406 1402 1397 1392 1387 1383 1379 1374 1370 1365 1359 1355 1350 1345 1340 1335 1330 1324 1319 1314 1309 1305 1300 1296 1291 1286 1282 1277 1272 1268 1264 1259
1440 1437 1435 1432 1429 1425 1421 1417 1413 1409 1405 1401 1397 1393 1390 1385 1380 1375 1371 1366 1361 1357 1352 1347 1343 1338 1333 1328 1322 1317 1312 1308 1303 1299 1294 1289 1285 1280 1276 1271 1267 1263 1258 1254
1434 1431 1428 1425 1422 1418 1414 1410 1405 1401 1397 1392 1387 1384 1381 1377 1372 1367 1363 1358 1354 1349 1344 1339 1334 1330 1325 1320 1315 1310 1306 1301 1296 1292 1288 1283 1279 1274 1270 1266 1262 1258 1253 1249
1427 1424 1421 1417 1414 1411 1407 1403 1398 1394 1390 1385 1380 1376 1372 1368 1364 1359 1355 1350 1345 1341 1336 1331 1327 1322 1317 1313 1308 1303 1299 1294 1290 1286 1281 1277 1273 1269 1265 1260 1256 1253 1249 1245